• Join FlightAware (Why Join?)
  • Login
  • US Flag 
06:37PM EST


 

Airport Tracker/Info


-or-


 

Live Flight TrackerFlight Track Log ✈ ASQ4252 ✈ 03-Jun-2013 ✈ KDFW - KIAH

Flight Track Log - Related Links

Times and Time Zones

All times are in EDT time to prevent confusion due to time zone crossing. See the ASQ4252 flight status page for this flight to view local times or setup timezone preferences in your user account.

Time Position Orientation Groundspeed Altitude Reporting Facility
EDT Latitude Longitude Course Direction KTS MPH feet Rate Location/Type
10:57AM 32.8833 -97.0333 199° South 168 193 1,100  Level Dallas / Fort Worth TRACON
10:57AM 32.8667 -97.0333 180° South 177 204 1,600 2,000 Climbing Dallas / Fort Worth TRACON
10:58AM 32.8167 -97.0333 180° South 208 239 3,700 1,835 Climbing Dallas / Fort Worth TRACON
11:00AM 32.6719 -96.9026 157° South  Level Estimated
11:00AM 32.6906 -97.0286 178° South 259 298 6,800  Level Houston Center
11:00AM 32.6636 -97.0111 151° Southeast 267 307 7,600 1,950 Climbing Fort Worth Center
11:01AM 32.6157 -96.8689 157° South  Level Estimated
11:01AM 32.5883 -96.9719 156° South 288 331 9,400  Level Fort Worth Center
11:02AM 32.5562 -96.8935 199° South  Level FlightAware Approximate
11:02AM 32.5108 -96.9331 157° South 298 343 10,900  Level Fort Worth Center
11:03AM 32.4253 -96.8892 157° South 315 362 11,800 1,100 Climbing Fort Worth Center
11:04AM 32.3353 -96.8431 157° South 348 400 13,100 1,350 Climbing Fort Worth Center
11:05AM 32.2411 -96.8017 160° South 357 411 14,500 1,350 Climbing Fort Worth Center
11:06AM 32.1533 -96.7656 161° South 362 417 15,800 1,350 Climbing Fort Worth Center
11:07AM 32.0592 -96.7319 163° South 367 422 17,200 1,250 Climbing Fort Worth Center
11:08AM 31.9608 -96.6983 164° South 367 422 18,300 900 Climbing Fort Worth Center
11:09AM 31.8583 -96.6550 160° South 366 421 19,000 350 Climbing Fort Worth Center
11:10AM 31.7536 -96.6094 160° South 384 442 19,000  Level Fort Worth Center
11:11AM 31.6533 -96.5694 161° South 399 459 19,000  Level Houston Center
11:12AM 31.5461 -96.5256 161° South 401 461 19,000  Level Houston Center
11:13AM 31.4403 -96.4792 159° South 401 461 19,000  Level Houston Center
11:14AM 31.3414 -96.4147 151° Southeast 401 461 19,000  Level Houston Center
11:15AM 31.2250 -96.3419 152° Southeast 401 461 19,000  Level Houston Center
11:16AM 31.1242 -96.2778 151° Southeast 404 465 19,000  Level Houston Center
11:17AM 31.0228 -96.2158 152° Southeast 405 466 19,000  Level Houston Center
11:18AM 30.9233 -96.1528 151° Southeast 402 463 19,000 -528 Level Houston Center
11:19AM 30.8228 -96.0900 152° Southeast 404 465 17,900 -1,296 Descending Houston Center
11:20AM 30.7144 -96.0250 153° Southeast 406 467 16,300 -1,573 Descending Houston Center
11:21AM 30.6439 -95.9817 152° Southeast 376 433 15,200 -1,452 Descending Houston Center
11:21AM 30.6239 -95.9658 146° Southeast 388 447 14,800 -1,446 Descending Houston Center
11:22AM 30.5325 -95.9100 152° Southeast 373 429 13,200 -1,355 Descending Houston Center
11:23AM 30.4411 -95.8497 150° Southeast 379 436 12,000 -1,065 Descending Houston Center
11:24AM 30.3658 -95.7719 138° Southeast 367 422 11,000 -1,355 Descending Houston Center
11:26AM 30.2867 -95.6878 137° Southeast 330 380 9,200 -1,632 Descending Houston Center
11:27AM 30.2083 -95.6086 139° Southeast 297 342 7,300 -978 Descending Houston Center
11:28AM 30.1483 -95.5481 139° Southeast 289 333 7,000 -159 Descending Houston Center
11:29AM 30.1094 -95.4950 130° Southeast 290 334 7,000 -526 Level Houston Center
11:30AM 30.1064 -95.4103 92° East 264 304 6,000 -919 Descending Houston Center
11:31AM 30.1061 -95.3300 90° East 252 290 5,100 -1,258 Descending Houston Center
11:32AM 30.1061 -95.2303 90° East 255 293 3,400 -1,032 Descending Houston Center
11:34AM 30.0511 -95.1119 118° Southeast 232 267 1,900 -454 Descending Houston Center
11:35AM 30.0056 -95.1597 222° Southwest 208 239 2,000 98 Climbing Houston Center